Time,TemperatureF,DewpointF,PressureIn,WindDirection,WindDirectionDegrees,WindSpeedMPH,WindSpeedGustMPH,Humidity,HourlyPrecipIn,Conditions,Clouds,dailyrainin,SoftwareType,DateUTC
2013-08-01 00:03:00,65.0,64.0,29.95,North,9,0.0,0.0,97,0.00,,,0.15,,2013-08-01 04:03:00,
2013-08-01 00:13:00,65.0,64.0,29.95,North,9,0.0,0.0,97,0.00,,,0.15,,2013-08-01 04:13:00,
2013-08-01 00:22:00,64.0,63.0,29.96,ESE,123,0.0,0.0,97,0.00,,,0.15,,2013-08-01 04:22:00,
2013-08-01 00:33:00,64.0,63.0,29.96,ESE,123,0.0,0.0,97,0.00,,,0.15,,2013-08-01 04:33:00,
2013-08-01 00:43:00,64.0,63.0,29.96,ESE,123,0.0,0.0,97,0.00,,,0.15,,2013-08-01 04:43:00,
2013-08-01 00:53:00,64.0,63.0,29.97,ESE,123,0.0,0.0,98,0.00,,,0.15,,2013-08-01 04:53:00,
2013-08-01 01:02:00,64.0,63.0,29.97,ESE,123,0.0,0.0,98,0.00,,,0.15,,2013-08-01 05:02:00,
2013-08-01 01:13:00,64.0,63.0,29.97,ESE,123,0.0,0.0,98,0.00,,,0.15,,2013-08-01 05:13:00,
2013-08-01 01:23:00,64.0,63.0,29.95,SE,129,0.0,0.0,98,0.00,,,0.15,,2013-08-01 05:23:00,
2013-08-01 01:33:00,64.0,63.0,29.95,SE,129,0.0,0.0,98,0.00,,,0.15,,2013-08-01 05:33:00,
2013-08-01 01:43:00,64.0,63.0,29.95,SSW,200,0.0,0.0,98,0.00,,,0.15,,2013-08-01 05:43:00,
2013-08-01 01:53:00,64.0,63.0,29.95,SSW,200,0.0,0.0,98,0.00,,,0.15,,2013-08-01 05:53:00,
2013-08-01 02:02:00,64.0,63.0,29.95,SSW,200,0.0,0.0,98,0.00,,,0.15,,2013-08-01 06:02:00,
2013-08-01 02:12:00,64.0,63.0,29.95,SSW,200,0.0,0.0,98,0.00,,,0.15,,2013-08-01 06:12:00,
2013-08-01 02:23:00,63.0,62.0,29.94,South,173,0.0,0.0,98,0.00,,,0.15,,2013-08-01 06:23:00,
2013-08-01 02:33:00,63.0,62.0,29.94,South,173,0.0,0.0,98,0.00,,,0.15,,2013-08-01 06:33:00,
2013-08-01 02:43:00,63.0,62.0,29.94,South,173,0.0,0.0,98,0.00,,,0.15,,2013-08-01 06:43:00,
2013-08-01 02:53:00,63.0,62.0,29.94,SW,217,0.0,0.0,98,0.00,,,0.15,,2013-08-01 06:53:00,
2013-08-01 03:02:00,63.0,62.0,29.94,SW,217,0.0,0.0,98,0.00,,,0.15,,2013-08-01 07:02:00,
2013-08-01 03:12:00,63.0,62.0,29.94,SW,217,0.0,0.0,98,0.00,,,0.15,,2013-08-01 07:12:00,
2013-08-01 03:23:00,63.0,62.0,29.94,WSW,252,0.0,0.0,98,0.00,,,0.15,,2013-08-01 07:23:00,
2013-08-01 03:32:00,63.0,62.0,29.94,WSW,252,0.0,0.0,98,0.00,,,0.15,,2013-08-01 07:32:00,
2013-08-01 03:43:00,63.0,63.0,29.94,WSW,241,0.0,0.0,99,0.00,,,0.15,,2013-08-01 07:43:00,
2013-08-01 03:55:00,63.0,63.0,29.94,WSW,241,0.0,0.0,99,0.00,,,0.15,,2013-08-01 07:55:00,
2013-08-01 04:06:00,63.0,63.0,29.94,WSW,241,0.0,0.0,99,0.00,,,0.15,,2013-08-01 08:06:00,
2013-08-01 04:16:00,63.0,63.0,29.94,WSW,241,0.0,0.0,99,0.00,,,0.15,,2013-08-01 08:16:00,
2013-08-01 04:38:00,63.0,63.0,29.95,WSW,248,0.0,0.0,99,0.00,,,0.15,,2013-08-01 08:38:00,
2013-08-01 04:48:00,63.0,63.0,29.95,WSW,248,0.0,0.0,99,0.00,,,0.15,,2013-08-01 08:48:00,
2013-08-01 05:09:00,63.0,63.0,29.94,NNW,336,0.0,0.0,99,0.00,,,0.15,,2013-08-01 09:09:00,
2013-08-01 05:24:00,63.0,63.0,29.94,NNW,336,0.0,0.0,99,0.00,,,0.15,,2013-08-01 09:24:00,
2013-08-01 05:34:00,63.0,63.0,29.94,West,267,0.0,0.0,99,0.00,,,0.15,,2013-08-01 09:34:00,
2013-08-01 05:44:00,63.0,63.0,29.94,West,267,0.0,0.0,99,0.00,,,0.15,,2013-08-01 09:44:00,
2013-08-01 05:59:00,63.0,63.0,29.95,SW,227,0.0,0.0,99,0.00,,,0.15,,2013-08-01 09:59:00,
2013-08-01 06:00:00,63.0,63.0,29.95,SSE,148,0.0,0.0,99,0.00,,,0.15,,2013-08-01 10:00:00,
2013-08-01 06:15:00,63.0,63.0,29.95,SW,227,0.0,0.0,99,0.00,,,0.15,,2013-08-01 10:15:00,
2013-08-01 06:22:00,63.0,63.0,29.95,SW,227,0.0,0.0,99,0.00,,,0.15,,2013-08-01 10:22:00,
2013-08-01 06:30:00,63.0,63.0,29.95,SSE,148,0.0,0.0,99,0.00,,,0.15,,2013-08-01 10:30:00,
2013-08-01 06:42:00,63.0,63.0,29.95,SSE,148,0.0,0.0,99,0.00,,,0.15,,2013-08-01 10:42:00,
2013-08-01 07:08:00,63.0,62.0,29.95,SSW,194,0.0,0.0,98,0.00,,,0.13,,2013-08-01 11:08:00,
2013-08-01 07:50:00,63.0,62.0,29.96,SSW,194,0.0,0.0,98,0.00,,,0.13,,2013-08-01 11:50:00,
2013-08-01 08:10:00,63.0,62.0,29.96,SSW,194,0.0,0.0,98,0.00,,,0.10,,2013-08-01 12:10:00,
2013-08-01 08:38:00,64.0,63.0,29.97,SSW,211,1.0,3.0,98,0.00,,,0.10,,2013-08-01 12:38:00,
2013-08-01 08:54:00,64.0,63.0,29.97,SSW,211,1.0,3.0,98,0.00,,,0.10,,2013-08-01 12:54:00,
2013-08-01 09:07:00,65.0,64.0,29.98,West,261,3.0,4.0,98,0.00,,,0.10,,2013-08-01 13:07:00,
2013-08-01 09:13:00,65.0,64.0,29.98,West,261,3.0,4.0,98,0.00,,,0.10,,2013-08-01 13:13:00,
2013-08-01 09:22:00,65.0,64.0,29.98,West,261,3.0,4.0,98,0.00,,,0.10,,2013-08-01 13:22:00,
2013-08-01 09:43:00,66.0,65.0,29.98,SSW,211,3.0,5.0,95,0.00,,,0.10,,2013-08-01 13:43:00,
2013-08-01 10:08:00,66.0,64.0,29.98,WSW,238,2.0,6.0,94,0.00,,,0.09,,2013-08-01 14:08:00,
2013-08-01 11:38:00,72.0,67.0,29.96,South,183,1.0,4.0,85,0.00,,,0.08,,2013-08-01 15:38:00,
2013-08-01 12:03:00,73.0,68.0,29.96,SW,221,2.0,3.0,85,0.00,,,0.04,,2013-08-01 16:03:00,
2013-08-01 12:08:00,73.0,68.0,29.96,SW,221,2.0,3.0,85,0.00,,,0.04,,2013-08-01 16:08:00,
2013-08-01 12:20:00,74.0,67.0,29.96,SW,228,3.0,6.0,80,0.00,,,0.04,,2013-08-01 16:20:00,
2013-08-01 12:31:00,74.0,67.0,29.96,SW,228,3.0,6.0,80,0.00,,,0.04,,2013-08-01 16:31:00,
2013-08-01 12:42:00,74.0,67.0,29.96,SW,228,3.0,6.0,80,0.00,,,0.04,,2013-08-01 16:42:00,
2013-08-01 12:53:00,74.0,67.0,29.96,SW,228,3.0,6.0,80,0.00,,,0.04,,2013-08-01 16:53:00,
2013-08-01 13:00:00,72.0,69.0,29.96,WSW,255,3.0,5.0,90,0.01,,,0.03,,2013-08-01 17:00:00,
2013-08-01 13:14:00,71.0,66.0,29.97,West,274,4.0,7.0,85,0.01,,,0.03,,2013-08-01 17:14:00,
2013-08-01 13:22:00,71.0,66.0,29.97,West,274,4.0,7.0,85,0.01,,,0.03,,2013-08-01 17:22:00,
2013-08-01 13:44:00,72.0,69.0,29.96,WSW,255,3.0,5.0,90,0.01,,,0.03,,2013-08-01 17:44:00,
2013-08-01 14:10:00,76.0,66.0,29.95,WSW,252,4.0,7.0,71,0.00,,,0.02,,2013-08-01 18:10:00,
2013-08-01 14:15:00,76.0,66.0,29.95,WSW,252,4.0,7.0,71,0.00,,,0.02,,2013-08-01 18:15:00,
2013-08-01 14:34:00,76.0,63.0,29.95,NE,40,1.0,3.0,65,0.00,,,0.02,,2013-08-01 18:34:00,
2013-08-01 14:43:00,76.0,63.0,29.95,NE,40,1.0,3.0,65,0.00,,,0.02,,2013-08-01 18:43:00,
2013-08-01 14:55:00,76.0,63.0,29.95,NE,40,1.0,3.0,65,0.00,,,0.02,,2013-08-01 18:55:00,
2013-08-01 15:13:00,78.0,62.0,29.95,WNW,294,1.0,3.0,57,0.00,,,0.01,,2013-08-01 19:13:00,
2013-08-01 15:33:00,79.0,59.0,29.95,NNW,334,2.0,4.0,51,0.00,,,0.01,,2013-08-01 19:33:00,
2013-08-01 15:41:00,79.0,59.0,29.95,NNW,334,2.0,4.0,51,0.00,,,0.01,,2013-08-01 19:41:00,
2013-08-01 16:00:00,79.0,58.0,29.95,NNE,26,2.0,3.0,49,0.00,,,0.01,,2013-08-01 20:00:00,
2013-08-01 16:14:00,79.0,58.0,29.95,NNE,26,2.0,3.0,49,0.00,,,0.01,,2013-08-01 20:14:00,
2013-08-01 16:52:00,79.0,57.0,29.95,NNE,29,2.0,5.0,47,0.00,,,0.01,,2013-08-01 20:52:00,
2013-08-01 16:58:00,78.0,58.0,29.95,NNE,19,2.0,6.0,50,0.00,,,0.01,,2013-08-01 20:58:00,
2013-08-01 17:03:00,78.0,58.0,29.95,NNE,19,2.0,6.0,50,0.00,,,0.01,,2013-08-01 21:03:00,
2013-08-01 17:14:00,78.0,58.0,29.95,NNE,19,2.0,6.0,50,0.00,,,0.01,,2013-08-01 21:14:00,
2013-08-01 17:34:00,79.0,56.0,29.95,North,355,1.0,3.0,46,0.00,,,0.01,,2013-08-01 21:34:00,
2013-08-01 17:53:00,78.0,57.0,29.95,ENE,78,2.0,5.0,48,0.00,,,0.01,,2013-08-01 21:53:00,
2013-08-01 18:08:00,78.0,57.0,29.95,ENE,78,2.0,5.0,48,0.00,,,0.01,,2013-08-01 22:08:00,
2013-08-01 18:17:00,78.0,57.0,29.95,ENE,78,2.0,5.0,48,0.00,,,0.01,,2013-08-01 22:17:00,
2013-08-01 18:23:00,78.0,57.0,29.95,North,351,1.0,3.0,49,0.00,,,0.01,,2013-08-01 22:23:00,
2013-08-01 18:35:00,78.0,57.0,29.95,North,351,1.0,3.0,49,0.00,,,0.01,,2013-08-01 22:35:00,
2013-08-01 18:48:00,78.0,57.0,29.95,North,351,1.0,3.0,49,0.00,,,0.01,,2013-08-01 22:48:00,
2013-08-01 19:00:00,77.0,57.0,29.94,North,355,1.0,3.0,51,0.00,,,0.01,,2013-08-01 23:00:00,
2013-08-01 19:09:00,77.0,57.0,29.94,North,355,1.0,3.0,51,0.00,,,0.01,,2013-08-01 23:09:00,
2013-08-01 19:18:00,77.0,57.0,29.94,North,355,1.0,3.0,51,0.00,,,0.01,,2013-08-01 23:18:00,
2013-08-01 19:25:00,76.0,57.0,29.94,ENE,69,0.0,2.0,52,0.00,,,0.01,,2013-08-01 23:25:00,
2013-08-01 19:33:00,76.0,57.0,29.94,ENE,69,0.0,2.0,52,0.00,,,0.01,,2013-08-01 23:33:00,
2013-08-01 20:19:00,71.0,59.0,29.94,North,11,0.0,1.0,65,0.00,,,0.01,,2013-08-02 00:19:00,
2013-08-01 20:31:00,71.0,59.0,29.94,North,11,0.0,1.0,65,0.00,,,0.01,,2013-08-02 00:31:00,
2013-08-01 20:41:00,71.0,59.0,29.94,North,11,0.0,1.0,65,0.00,,,0.01,,2013-08-02 00:41:00,
2013-08-01 20:52:00,71.0,59.0,29.94,North,11,0.0,1.0,65,0.00,,,0.01,,2013-08-02 00:52:00,
2013-08-01 21:01:00,69.0,59.0,29.94,North,11,0.0,0.0,71,0.00,,,0.01,,2013-08-02 01:01:00,
2013-08-01 21:16:00,69.0,59.0,29.94,North,11,0.0,0.0,71,0.00,,,0.01,,2013-08-02 01:16:00,
2013-08-01 21:29:00,67.0,56.0,29.95,North,11,0.0,0.0,69,0.00,,,0.01,,2013-08-02 01:29:00,
2013-08-01 21:49:00,67.0,56.0,29.95,North,11,0.0,0.0,69,0.00,,,0.01,,2013-08-02 01:49:00,
2013-08-01 22:08:00,66.0,56.0,29.95,North,11,0.0,1.0,70,0.00,,,0.01,,2013-08-02 02:08:00,
2013-08-01 22:18:00,66.0,56.0,29.95,North,11,0.0,1.0,70,0.00,,,0.01,,2013-08-02 02:18:00,
2013-08-01 22:28:00,64.0,57.0,29.97,North,11,0.0,0.0,79,0.00,,,0.01,,2013-08-02 02:28:00,
2013-08-01 22:35:00,64.0,57.0,29.97,North,11,0.0,0.0,79,0.00,,,0.01,,2013-08-02 02:35:00,
2013-08-01 22:45:00,64.0,57.0,29.97,North,11,0.0,0.0,79,0.00,,,0.01,,2013-08-02 02:45:00,
2013-08-01 23:12:00,62.0,57.0,29.96,North,11,0.0,0.0,83,0.00,,,0.01,,2013-08-02 03:12:00,
2013-08-01 23:38:00,61.0,57.0,29.96,North,11,0.0,0.0,86,0.00,,,0.01,,2013-08-02 03:38:00,
2013-08-01 23:52:00,61.0,57.0,29.96,North,11,0.0,0.0,86,0.00,,,0.01,,2013-08-02 03:52:00,